Satellite: EUTELSAT W2
Catalog number: 25491
Epoch time:      103029.00266876
Element set:     571 
Inclination:        0.0278 deg
RA of node:       124.8124 deg
Eccentricity:    0.0003697
Arg of perigee:   176.6640 deg
Mean anomaly:     203.3209 deg
Mean motion:    1.00274433 rev/day
Decay rate:    9.8999E-007 rev/day^2
Epoch rev:            1584
Checksum:              300

Satellite: HOT BIRD 5
Catalog number: 25495
Epoch time:      103028.98801506
Element set:     495 
Inclination:        0.0153 deg
RA of node:       266.2596 deg
Eccentricity:    0.0004156
Arg of perigee:    42.4510 deg
Mean anomaly:     207.8526 deg
Mean motion:    1.00271667 rev/day
Decay rate:    1.5099E-006 rev/day^2
Epoch rev:            1581
Checksum:              290

Satellite: SEDSAT 1
Catalog number: 25509
Epoch time:      103030.97888593
Element set:     768 
Inclination:       31.4284 deg
RA of node:       258.1524 deg
Eccentricity:    0.0357377
Arg of perigee:   140.5710 deg
Mean anomaly:     222.1499 deg
Mean motion:   14.27404613 rev/day
Decay rate:    8.8500E-006 rev/day^2
Epoch rev:           22265
Checksum:              317

Satellite: PAN SAT
Catalog number: 25520
Epoch time:      103031.16592056
Element set:     634 
Inclination:       28.4597 deg
RA of node:       346.4165 deg
Eccentricity:    0.0005937
Arg of perigee:   155.1805 deg
Mean anomaly:     204.9060 deg
Mean motion:   15.13781807 rev/day
Decay rate:    2.3910E-005 rev/day^2
Epoch rev:           23479
Checksum:              297

Satellite: ISS (ZARYA)
Catalog number: 25544
Epoch time:      103032.17634259
Element set:     645 
Inclination:       51.6371 deg
RA of node:       343.4088 deg
Eccentricity:    0.0005341
Arg of perigee:   101.0798 deg
Mean anomaly:     104.8744 deg
Mean motion:   15.60050038 rev/day
Decay rate:    4.0253E-004 rev/day^2
Epoch rev:           23978
Checksum:              284

Satellite: ORSTED
Catalog number: 25635
Epoch time:      103031.52221781
Element set:     820 
Inclination:       96.4482 deg
RA of node:        22.0760 deg
Eccentricity:    0.0146443
Arg of perigee:    26.8306 deg
Mean anomaly:     334.0365 deg
Mean motion:   14.44799995 rev/day
Decay rate:    7.7699E-006 rev/day^2
Epoch rev:           20733
Checksum:              314

Satellite: SUNSAT
Catalog number: 25636
Epoch time:      103030.23161074
Element set:     660 
Inclination:       96.4516 deg
RA of node:        19.7926 deg
Eccentricity:    0.0150414
Arg of perigee:    37.0876 deg
Mean anomaly:     324.0600 deg
Mean motion:   14.42932458 rev/day
Decay rate:    3.6300E-006 rev/day^2
Epoch rev:           20702
Checksum:              268

Satellite: UOSAT 12
Catalog number: 25693
Epoch time:      103032.20949072
Element set:     665 
Inclination:       64.5597 deg
RA of node:        63.9188 deg
Eccentricity:    0.0018721
Arg of perigee:   316.5071 deg
Mean anomaly:      43.4554 deg
Mean motion:   14.76366903 rev/day
Decay rate:    4.0700E-006 rev/day^2
Epoch rev:           20369
Checksum:              412

Satellite: FENGYUN 1C
Catalog number: 25730
Epoch time:      103032.21796799
Element set:     756 
Inclination:       98.6354 deg
RA of node:        57.2700 deg
Eccentricity:    0.0015228
Arg of perigee:    54.2020 deg
Mean anomaly:     306.0564 deg
Mean motion:   14.11731540 rev/day
Decay rate:   -2.9000E-007 rev/day^2
Epoch rev:           19218
Checksum:              280

Satellite: ASTRA 1H
Catalog number: 25785
Epoch time:      103023.00000000
Element set:     369 
Inclination:        0.0122 deg
RA of node:       319.8851 deg
Eccentricity:    0.0002995
Arg of perigee:    65.1991 deg
Mean anomaly:     116.0174 deg
Mean motion:    1.00273184 rev/day
Decay rate:    1.2299E-006 rev/day^2
Epoch rev:            1323
Checksum:              243

Satellite: TERRA
Catalog number: 25994
Epoch time:      103032.14548452
Element set:     655 
Inclination:       98.2009 deg
RA of node:       108.6348 deg
Eccentricity:    0.0001054
Arg of perigee:    82.0057 deg
Mean anomaly:     278.1273 deg
Mean motion:   14.57110316 rev/day
Decay rate:    5.1900E-006 rev/day^2
Epoch rev:           16613
Checksum:              282

Satellite: JAWSAT
Catalog number: 26061
Epoch time:      103031.90377642
Element set:     754 
Inclination:      100.2106 deg
RA of node:        85.6926 deg
Eccentricity:    0.0034716
Arg of perigee:   330.0801 deg
Mean anomaly:      29.8395 deg
Mean motion:   14.37802568 rev/day
Decay rate:    4.2299E-006 rev/day^2
Epoch rev:           15799
Checksum:              309

Satellite: OPAL
Catalog number: 26063
Epoch time:      103031.71179705
Element set:     711 
Inclination:      100.2156 deg
RA of node:        83.0506 deg
Eccentricity:    0.0037202
Arg of perigee:   337.5804 deg
Mean anomaly:      22.3747 deg
Mean motion:   14.35473020 rev/day
Decay rate:    9.4000E-007 rev/day^2
Epoch rev:           15782
Checksum:              256

Satellite: ASUSAT
Catalog number: 26065
Epoch time:      103031.87810963
Element set:     722 
Inclination:      100.2154 deg
RA of node:        83.3924 deg
Eccentricity:    0.0037103
Arg of perigee:   338.4013 deg
Mean anomaly:      21.5600 deg
Mean motion:   14.35499978 rev/day
Decay rate:    1.1500E-006 rev/day^2
Epoch rev:           15784
Checksum:              277

Satellite: GOES 11
Catalog number: 26352
Epoch time:      103031.16906446
Element set:     0 
Inclination:        0.0963 deg
RA of node:       105.5322 deg
Eccentricity:    0.0004270
Arg of perigee:   180.3658 deg
Mean anomaly:     152.0194 deg
Mean motion:    1.00263110 rev/day
Decay rate:   -4.7000E-007 rev/day^2
Epoch rev:            1005
Checksum:              213

Satellite: EUTELSAT W4
Catalog number: 26369
Epoch time:      103028.81856696
Element set:     348 
Inclination:        0.0297 deg
RA of node:        41.0424 deg
Eccentricity:    0.0009627
Arg of perigee:   313.4883 deg
Mean anomaly:     103.8214 deg
Mean motion:    1.00274845 rev/day
Decay rate:    1.5099E-006 rev/day^2
Epoch rev:             984
Checksum:              304

Satellite: FENGYUN 2B
Catalog number: 26382
Epoch time:      103031.55499757
Element set:     779 
Inclination:        0.6110 deg
RA of node:       287.1027 deg
Eccentricity:    0.0000385
Arg of perigee:   155.6959 deg
Mean anomaly:     351.1687 deg
Mean motion:    1.00257359 rev/day
Decay rate:   -3.3399E-006 rev/day^2
Epoch rev:             953
Checksum:              319

Satellite: EUTELSAT W1
Catalog number: 26487
Epoch time:      103028.81965858
Element set:     349 
Inclination:        0.0101 deg
RA of node:       302.0094 deg
Eccentricity:    0.0003628
Arg of perigee:   296.2496 deg
Mean anomaly:     194.4288 deg
Mean motion:    1.00271090 rev/day
Decay rate:    6.2999E-007 rev/day^2
Epoch rev:             881
Checksum:              308

Satellite: ASTRA 2B
Catalog number: 26494
Epoch time:      103023.00000000
Element set:     252 
Inclination:        0.0178 deg
RA of node:       354.5658 deg
Eccentricity:    0.0005000
Arg of perigee:   302.8402 deg
Mean anomaly:     212.7100 deg
Mean motion:    1.00276704 rev/day
Decay rate:    1.5399E-006 rev/day^2
Epoch rev:             865
Checksum:              221

Satellite: NOAA 16
Catalog number: 26536
Epoch time:      103031.58194079
Element set:     189 
Inclination:       98.8992 deg
RA of node:       340.0008 deg
Eccentricity:    0.0010674
Arg of perigee:     1.5943 deg
Mean anomaly:     358.5260 deg
Mean motion:   14.11892218 rev/day
Decay rate:   -4.1999E-007 rev/day^2
Epoch rev:           12161
Checksum:              322

Satellite: SAUDISAT 1A
Catalog number: 26545
Epoch time:      103030.74773658
Element set:     405 
Inclination:       64.5592 deg
RA of node:        89.7685 deg
Eccentricity:    0.0053341
Arg of perigee:   241.7734 deg
Mean anomaly:     117.8021 deg
Mean motion:   14.78927899 rev/day
Decay rate:    9.3700E-006 rev/day^2
Epoch rev:           12643
Checksum:              337

Satellite: UNISAT
Catalog number: 26547
Epoch time:      103030.74367382
Element set:     424 
Inclination:       64.5571 deg
RA of node:        92.0868 deg
Eccentricity:    0.0060528
Arg of perigee:   244.1868 deg
Mean anomaly:     115.3005 deg
Mean motion:   14.79660001 rev/day
Decay rate:    1.8040E-005 rev/day^2
Epoch rev:           12640
Checksum:              381

Satellite: TIUNGSAT 1
Catalog number: 26548
Epoch time:      103029.65147668
Element set:     408 
Inclination:       64.5579 deg
RA of node:        86.2475 deg
Eccentricity:    0.0046644
Arg of perigee:   241.0722 deg
Mean anomaly:     118.5705 deg
Mean motion:   14.81198315 rev/day
Decay rate:    1.2649E-005 rev/day^2
Epoch rev:           12641
Checksum:              419

Satellite: SAUDISAT 1B
Catalog number: 26549
Epoch time:      103032.19134047
Element set:     680 
Inclination:       64.5554 deg
RA of node:        89.3567 deg
Eccentricity:    0.0057641
Arg of perigee:   241.8642 deg
Mean anomaly:     117.6607 deg
Mean motion:   14.77872254 rev/day
Decay rate:    1.0740E-005 rev/day^2
Epoch rev:           12657
Checksum:              317

Satellite: AMSAT OSCAR 40
Catalog number: 26609
Epoch time:      103031.12919724
Element set:     307 
Inclination:        8.0453 deg
RA of node:        67.5507 deg
Eccentricity:    0.7939050
Arg of perigee:   138.7490 deg
Mean anomaly:     320.5387 deg
Mean motion:    1.25596638 rev/day
Decay rate:   -1.5299E-006 rev/day^2
Epoch rev:            1035
Checksum:              313

